"Pseudo-MPEC" for P11DBYo

Created 2023 Mar 22 15:22:11 UT using Find_Orb

Click here for an explanation of pseudo-MPECs

 
 Astrometry: 
     P11DBYo* C2023 03 18\dFa/TAstrometryeo\4yk?1l+'QW]7CwK7Zredacted;(ci(yS(F51
     P11DBYo  C2023 03 18`=7L2s`1Yw0Z(719N]KNN+click0kNherelk(OQyfW19rvXQsheUF51
     P11DBYo  C2023 03 18ZQI.S`4[4?fork%H8p*g)S3:l+jJexplanation7ms'SBia(#BpwF51

Station data:
(F51) Pan-STARRS 1, Haleakala  (N20.707234 W156.255910)  US/Hawaii.
   Observers J. Bulger, T. Lowe, A. Schultz, M. Willman. Measurers K.
   Chambers, S. Chastel, T. de Boer, L. Denneau, J. Fairlamb, H. Flewelling,
   M. Huber, C.-C. Lin, E. Magnier, Y. Ramanjooloo, R. Wainscoat, R. Weryk.
   1.8-m Ritchey-Chrétien + CCD.

Orbital elements:  P11DBYo
   Perihelion 2022 Apr 9.59875 +/- 300 TT = 14:22:11 (JD 2459679.09875)
Epoch 2023 Mar 18.0 TT = JDT 2460021.5   Earth MOID: 0.6997      AutoNEOCP
M 139.00425825 +/- 100              (J2000 ecliptic)
n   0.40596889 +/- 0.239            Peri.  330.95036 +/- 70
a   1.80637346 +/- 0.71             Node    57.26740 +/- 50
e   0.0701247 +/- 0.256             Incl.   19.98879 +/- 31
P   2.43/886.75d           H 20.05  G  0.15   U 11.8  SR
q 1.67970201 +/- 0.933    Q 1.93304491 +/- 33.8
From 3 observations 2023 Mar. 18 (32.6 min); mean residual 0".06
Residuals in arcseconds: 
230318 F51  .01-  .05+    230318 F51  .02+  .11-    230318 F51  .01-  .05+    

Ephemerides (geocentric):
Date (UTC) HH   RA             Dec           delta  r     elong  mag " sig PA
---- --------  ------------   ------------  ------ ------ -----  --- --------
2023 03 22 15  12 20 24.590   +36 27 56.76  1.0166 1.9079 142.8 22.5 2091   0
2023 03 22 16  12 20 20.480   +36 27 52.50  1.0167 1.9079 142.8 22.5 2124   0
2023 03 22 17  12 20 16.370   +36 27 48.18  1.0168 1.9080 142.8 22.5 2157   0
2023 03 22 18  12 20 12.261   +36 27 43.80  1.0169 1.9080 142.8 22.5 2190   0
2023 03 22 19  12 20 08.151   +36 27 39.36  1.0169 1.9080 142.8 22.5 2225   0
2023 03 22 20  12 20 04.042   +36 27 34.86  1.0170 1.9080 142.8 22.5 2259   0
2023 03 22 21  12 19 59.934   +36 27 30.29  1.0171 1.9080 142.7 22.5 2294   0
2023 03 22 22  12 19 55.825   +36 27 25.66  1.0172 1.9081 142.7 22.5 2330   0
2023 03 22 23  12 19 51.717   +36 27 20.96  1.0172 1.9081 142.7 22.5 2366   0
2023 03 23 00  12 19 47.609   +36 27 16.21  1.0173 1.9081 142.7 22.5 2403   0
2023 03 23 01  12 19 43.502   +36 27 11.39  1.0174 1.9081 142.7 22.5 2440   0
2023 03 23 02  12 19 39.395   +36 27 06.51  1.0175 1.9081 142.7 22.5 2478   0
2023 03 23 03  12 19 35.288   +36 27 01.56  1.0175 1.9082 142.7 22.5 2516   0
2023 03 23 04  12 19 31.181   +36 26 56.55  1.0176 1.9082 142.7 22.5 2555   0
2023 03 23 05  12 19 27.075   +36 26 51.48  1.0177 1.9082 142.7 22.5 2595   0
2023 03 23 06  12 19 22.970   +36 26 46.35  1.0178 1.9082 142.6 22.5 2636   0
2023 03 23 07  12 19 18.864   +36 26 41.15  1.0178 1.9082 142.6 22.5 2677   0
2023 03 23 08  12 19 14.760   +36 26 35.90  1.0179 1.9083 142.6 22.5 2719   0
2023 03 23 09  12 19 10.655   +36 26 30.57  1.0180 1.9083 142.6 22.5 2761   0
2023 03 23 10  12 19 06.551   +36 26 25.19  1.0181 1.9083 142.6 22.5 2804   0
2023 03 23 11  12 19 02.448   +36 26 19.74  1.0182 1.9083 142.6 22.5 2849   0
2023 03 23 12  12 18 58.344   +36 26 14.23  1.0182 1.9084 142.6 22.5 2893   0
2023 03 23 13  12 18 54.242   +36 26 08.66  1.0183 1.9084 142.6 22.5 2939   0
2023 03 23 14  12 18 50.140   +36 26 03.03  1.0184 1.9084 142.6 22.5 2986   0
2023 03 23 15  12 18 46.038   +36 25 57.33  1.0185 1.9084 142.5 22.5 3033   1
2023 03 23 16  12 18 41.937   +36 25 51.57  1.0185 1.9084 142.5 22.5 3082   1
2023 03 23 17  12 18 37.836   +36 25 45.74  1.0186 1.9085 142.5 22.5 3131   1
2023 03 23 18  12 18 33.736   +36 25 39.86  1.0187 1.9085 142.5 22.5 3182   1
2023 03 23 19  12 18 29.637   +36 25 33.91  1.0188 1.9085 142.5 22.5 3233   1
2023 03 23 20  12 18 25.538   +36 25 27.90  1.0189 1.9085 142.5 22.5 3286   1
2023 03 23 21  12 18 21.439   +36 25 21.82  1.0190 1.9085 142.5 22.5 3339   1
2023 03 23 22  12 18 17.341   +36 25 15.68  1.0190 1.9086 142.5 22.5 3394   1
2023 03 23 23  12 18 13.244   +36 25 09.48  1.0191 1.9086 142.4 22.5 3450   1
2023 03 24 00  12 18 09.147   +36 25 03.22  1.0192 1.9086 142.4 22.5 3507   1
2023 03 24 01  12 18 05.051   +36 24 56.90  1.0193 1.9086 142.4 22.5 3566   1
2023 03 24 02  12 18 00.956   +36 24 50.51  1.0194 1.9086 142.4 22.5 3625   1
2023 03 24 03  12 17 56.861   +36 24 44.06  1.0195 1.9087 142.4 22.5 3687   1
2023 03 24 04  12 17 52.767   +36 24 37.54  1.0195 1.9087 142.4 22.5 3749   1
2023 03 24 05  12 17 48.673   +36 24 30.97  1.0196 1.9087 142.4 22.5 3813   1
2023 03 24 06  12 17 44.581   +36 24 24.33  1.0197 1.9087 142.4 22.5 3879   1
2023 03 24 07  12 17 40.489   +36 24 17.62  1.0198 1.9088 142.3 22.5 3946   1
2023 03 24 08  12 17 36.397   +36 24 10.86  1.0199 1.9088 142.3 22.5 4015   1
2023 03 24 09  12 17 32.306   +36 24 04.03  1.0200 1.9088 142.3 22.5 4086   2
2023 03 24 10  12 17 28.216   +36 23 57.14  1.0200 1.9088 142.3 22.5 4158   2
2023 03 24 11  12 17 24.127   +36 23 50.19  1.0201 1.9088 142.3 22.5 4233   2
2023 03 24 12  12 17 20.039   +36 23 43.17  1.0202 1.9089 142.3 22.5 4309   2
2023 03 24 13  12 17 15.951   +36 23 36.09  1.0203 1.9089 142.3 22.5 4387   2
2023 03 24 14  12 17 11.864   +36 23 28.95  1.0204 1.9089 142.3 22.5 4468   2